Location: Newark
(7.0858°N, 171.3717°E)
Time: 22:17:00
(UTC+00:00)

N. Korean satellite - Pass Details

Date: 29 September 2021
Orbit: 450 x 495 km, 97.3° (Epoch: 21 October)

Event Time Altitude Azimuth Distance (km) Brightness Sun altitude
Rises 17:29:25 0° 11° (N) 2,550 10.4 -14.0°
Reaches altitude 10° 17:31:29 10° 12° (NNE) 1,676 9.4 -13.5°
Maximum altitude 17:35:06 87° 100° (E) 498 6.6 -12.6°
Drops below altitude 10° 17:38:44 10° 190° (S) 1,689 9.2 -11.7°
Sets 17:40:49 0° 190° (S) 2,573 10.1 -11.2°
